TAP073 LPPT-SBGL

Flight info

Callsign TAP073
Flight time N/A
Altitude 33000
Route ULVOT DCT BEXAL DCT SAMAR N873 GDV/N0455F300 DCT BIPET/N0474F340 N857 GUNET UN857 BOTNO/N0478F360 UN857 KIBEG/N0468F380 UN857 MOLSU
Aircraft A339/H-SADE1E2E3GHIJ3J5M1P2RWXY/LB2D1

Departure

Time N/A
Airport Lisbon Humberto Delgado Airport (LPPT)

Arrival

Time 2026-04-28 15:50
Airport Rio Galeão – Tom Jobim International Airport (SBGL)
Time Latitude Longitude Altitude Speed Heading
2026-04-28 12:33 -1.69713 -31.30681 35971 ft 479 kts 205°
2026-04-28 12:34 -1.75649 -31.33747 35971 ft 479 kts 205°
2026-04-28 12:34 -1.81573 -31.36807 35969 ft 479 kts 205°
2026-04-28 12:35 -1.87522 -31.39881 35962 ft 478 kts 205°
2026-04-28 12:35 -1.93418 -31.42926 36014 ft 481 kts 205°
2026-04-28 12:35 -1.96408 -31.44470 36266 ft 481 kts 205°
2026-04-28 12:36 -1.99263 -31.45945 36590 ft 480 kts 205°
2026-04-28 12:36 -2.02238 -31.47483 36926 ft 478 kts 205°
2026-04-28 12:36 -2.05172 -31.49000 37207 ft 477 kts 205°
2026-04-28 12:36 -2.08128 -31.50527 37444 ft 477 kts 205°
2026-04-28 12:37 -2.11105 -31.52065 37655 ft 478 kts 205°
2026-04-28 12:37 -2.14052 -31.53588 37841 ft 478 kts 205°
2026-04-28 12:37 -2.17011 -31.55117 37947 ft 479 kts 205°
2026-04-28 12:38 -2.22945 -31.58184 37952 ft 479 kts 205°
2026-04-28 12:38 -2.28835 -31.61229 37952 ft 478 kts 205°
2026-04-28 12:39 -2.34776 -31.64299 37952 ft 478 kts 205°
2026-04-28 12:39 -2.40668 -31.67346 37951 ft 479 kts 205°
2026-04-28 12:40 -2.46605 -31.70415 37952 ft 479 kts 205°
2026-04-28 12:40 -2.52526 -31.73478 37953 ft 480 kts 205°
2026-04-28 12:41 -2.58448 -31.76540 37953 ft 479 kts 205°
2026-04-28 12:41 -2.64399 -31.79616 37952 ft 478 kts 205°
2026-04-28 12:42 -2.70318 -31.82679 37952 ft 478 kts 205°
2026-04-28 12:42 -2.76233 -31.85740 37952 ft 478 kts 205°
2026-04-28 12:43 -2.82140 -31.88795 37952 ft 479 kts 205°
2026-04-28 12:43 -2.88076 -31.91866 37952 ft 479 kts 205°
2026-04-28 12:44 -2.93979 -31.94921 37953 ft 478 kts 205°
2026-04-28 12:44 -2.99888 -31.97980 37952 ft 477 kts 205°
2026-04-28 12:45 -3.05821 -32.01052 37952 ft 477 kts 205°
2026-04-28 12:45 -3.11699 -32.04095 37952 ft 477 kts 205°
2026-04-28 12:46 -3.17616 -32.07159 37952 ft 478 kts 205°
2026-04-28 12:46 -3.23507 -32.10209 37953 ft 478 kts 205°
2026-04-28 12:47 -3.29434 -32.13289 37954 ft 478 kts 205°
2026-04-28 12:47 -3.35343 -32.16406 37954 ft 479 kts 205°
2026-04-28 12:48 -3.41213 -32.19509 37955 ft 479 kts 205°
2026-04-28 12:48 -3.47144 -32.22641 37956 ft 478 kts 205°
2026-04-28 12:49 -3.53030 -32.25747 37960 ft 479 kts 205°
2026-04-28 12:49 -3.58919 -32.28855 37964 ft 478 kts 205°
2026-04-28 12:50 -3.64836 -32.31977 37967 ft 479 kts 205°
2026-04-28 12:50 -3.70704 -32.35076 37970 ft 479 kts 205°
2026-04-28 12:51 -3.76516 -32.38145 37975 ft 479 kts 205°
2026-04-28 12:51 -3.81646 -32.40855 37982 ft 480 kts 205°
2026-04-28 12:52 -3.87538 -32.43955 37986 ft 479 kts 205°
2026-04-28 12:52 -3.93480 -32.47009 37986 ft 479 kts 205°
2026-04-28 12:53 -3.99443 -32.50066 37981 ft 479 kts 205°
2026-04-28 12:53 -4.05373 -32.53115 37976 ft 479 kts 205°
2026-04-28 12:54 -4.11279 -32.56154 37975 ft 480 kts 205°
2026-04-28 12:54 -4.17245 -32.59226 37970 ft 480 kts 205°
2026-04-28 12:55 -4.23200 -32.62292 37974 ft 481 kts 205°
2026-04-28 12:55 -4.29174 -32.65367 37971 ft 481 kts 205°
2026-04-28 12:56 -4.35133 -32.68436 37972 ft 482 kts 205°
2026-04-28 12:56 -4.40604 -32.71253 37972 ft 482 kts 205°
2026-04-28 12:57 -4.46590 -32.74337 37973 ft 482 kts 205°
2026-04-28 12:57 -4.52549 -32.77406 37972 ft 482 kts 205°
2026-04-28 12:58 -4.58517 -32.80484 37973 ft 483 kts 205°
2026-04-28 12:58 -4.64506 -32.83563 37973 ft 483 kts 205°
2026-04-28 12:59 -4.70504 -32.86644 37972 ft 484 kts 205°
2026-04-28 12:59 -4.76496 -32.89722 37974 ft 484 kts 205°
2026-04-28 13:00 -4.82524 -32.92820 37972 ft 485 kts 205°
2026-04-28 13:00 -4.88547 -32.95915 37971 ft 485 kts 205°
2026-04-28 13:01 -4.94529 -32.98992 37969 ft 485 kts 205°
2026-04-28 13:01 -5.00053 -33.01832 37971 ft 485 kts 205°
2026-04-28 13:02 -5.06086 -33.04937 37959 ft 486 kts 205°
2026-04-28 13:02 -5.12065 -33.08013 37958 ft 485 kts 205°
2026-04-28 13:03 -5.18086 -33.11111 37951 ft 485 kts 205°
2026-04-28 13:03 -5.24118 -33.14217 37950 ft 485 kts 205°
2026-04-28 13:04 -5.30136 -33.17314 37953 ft 485 kts 205°
2026-04-28 13:04 -5.36127 -33.20399 37952 ft 484 kts 205°
2026-04-28 13:05 -5.42145 -33.23498 37953 ft 484 kts 205°
2026-04-28 13:05 -5.48144 -33.26588 37959 ft 485 kts 205°
2026-04-28 13:06 -5.54138 -33.29676 37961 ft 484 kts 205°
2026-04-28 13:06 -5.59666 -33.32526 37957 ft 485 kts 205°
2026-04-28 13:07 -5.65698 -33.35635 37959 ft 484 kts 205°
2026-04-28 13:07 -5.71700 -33.38730 37962 ft 485 kts 206°
2026-04-28 13:08 -5.77710 -33.41829 37965 ft 484 kts 206°
2026-04-28 13:08 -5.83682 -33.44911 37969 ft 485 kts 206°
2026-04-28 13:09 -5.89713 -33.48024 37970 ft 485 kts 206°
2026-04-28 13:09 -5.95698 -33.51114 37970 ft 485 kts 206°
2026-04-28 13:10 -6.01717 -33.54221 37971 ft 485 kts 206°
2026-04-28 13:10 -6.07719 -33.57320 37972 ft 485 kts 206°
2026-04-28 13:11 -6.13762 -33.60441 37972 ft 485 kts 206°
2026-04-28 13:11 -6.19310 -33.63309 37973 ft 485 kts 206°
2026-04-28 13:12 -6.25324 -33.66416 37972 ft 485 kts 206°
2026-04-28 13:12 -6.31332 -33.69524 37973 ft 485 kts 206°
2026-04-28 13:13 -6.37335 -33.72628 37973 ft 485 kts 206°
2026-04-28 13:13 -6.43340 -33.75733 37972 ft 485 kts 206°
2026-04-28 13:14 -6.49327 -33.78830 37972 ft 485 kts 206°
2026-04-28 13:14 -6.55352 -33.81949 37973 ft 485 kts 206°
2026-04-28 13:15 -6.61355 -33.85056 37973 ft 485 kts 206°
2026-04-28 13:15 -6.67376 -33.88174 37972 ft 485 kts 206°
2026-04-28 13:16 -6.73357 -33.91272 37973 ft 484 kts 206°
2026-04-28 13:16 -6.78909 -33.94149 37973 ft 484 kts 206°
2026-04-28 13:17 -6.84896 -33.97251 37973 ft 485 kts 206°
2026-04-28 13:17 -6.90890 -34.00357 37973 ft 485 kts 206°
2026-04-28 13:18 -6.96876 -34.03462 37974 ft 485 kts 206°
2026-04-28 13:18 -7.02906 -34.06589 37975 ft 484 kts 206°
2026-04-28 13:19 -7.08877 -34.09687 37972 ft 484 kts 206°
2026-04-28 13:19 -7.14874 -34.12801 37974 ft 484 kts 206°
2026-04-28 13:20 -7.20844 -34.15899 37974 ft 484 kts 206°
2026-04-28 13:20 -7.26858 -34.19021 37974 ft 483 kts 206°
2026-04-28 13:21 -7.32830 -34.22124 37974 ft 483 kts 206°
2026-04-28 13:21 -7.38310 -34.24971 37973 ft 483 kts 206°
2026-04-28 13:22 -7.44303 -34.28086 37974 ft 483 kts 206°
2026-04-28 13:22 -7.50252 -34.31180 37974 ft 483 kts 206°
2026-04-28 13:23 -7.56262 -34.34304 37974 ft 483 kts 206°
2026-04-28 13:23 -7.62245 -34.37418 37976 ft 483 kts 206°
2026-04-28 13:24 -7.68208 -34.40523 37977 ft 482 kts 206°
2026-04-28 13:24 -7.74191 -34.43639 37978 ft 482 kts 206°
2026-04-28 13:25 -7.80122 -34.46784 37980 ft 483 kts 207°
2026-04-28 13:25 -7.86059 -34.50003 37979 ft 483 kts 207°
2026-04-28 13:26 -7.91974 -34.53208 37981 ft 483 kts 207°
2026-04-28 13:26 -7.97381 -34.56133 37982 ft 483 kts 207°
2026-04-28 13:27 -8.03340 -34.59354 37983 ft 483 kts 207°
2026-04-28 13:27 -8.09270 -34.62561 37986 ft 483 kts 207°
2026-04-28 13:28 -8.15319 -34.65527 37987 ft 482 kts 201°
2026-04-28 13:28 -8.21491 -34.68101 37989 ft 483 kts 201°
2026-04-28 13:29 -8.27749 -34.70685 37993 ft 483 kts 201°
2026-04-28 13:29 -8.33985 -34.73267 37991 ft 483 kts 201°
2026-04-28 13:30 -8.40194 -34.75843 37992 ft 483 kts 201°
2026-04-28 13:30 -8.46415 -34.78427 37992 ft 482 kts 201°
2026-04-28 13:31 -8.55724 -34.82294 37992 ft 482 kts 201°
2026-04-28 13:31 -8.61460 -34.84679 37992 ft 482 kts 201°
2026-04-28 13:32 -8.67664 -34.87261 37992 ft 482 kts 201°
2026-04-28 13:32 -8.73864 -34.89840 37993 ft 482 kts 201°
2026-04-28 13:33 -8.80067 -34.92422 37993 ft 482 kts 201°
2026-04-28 13:33 -8.86294 -34.95015 37994 ft 482 kts 201°
2026-04-28 13:34 -8.92515 -34.97606 37994 ft 482 kts 201°
2026-04-28 13:34 -8.98723 -35.00191 37996 ft 482 kts 201°
2026-04-28 13:35 -9.04878 -35.02845 37998 ft 482 kts 205°
2026-04-28 13:35 -9.10823 -35.06047 37999 ft 483 kts 209°
2026-04-28 13:36 -9.16640 -35.09420 37999 ft 482 kts 209°
2026-04-28 13:36 -9.22100 -35.12589 37998 ft 482 kts 209°
2026-04-28 13:37 -9.27920 -35.15960 37999 ft 482 kts 209°
2026-04-28 13:37 -9.33778 -35.19351 37999 ft 482 kts 209°
2026-04-28 13:38 -9.39592 -35.22717 38002 ft 482 kts 209°
2026-04-28 13:38 -9.45437 -35.26102 38002 ft 482 kts 209°
2026-04-28 13:39 -9.51259 -35.29475 38002 ft 482 kts 209°
2026-04-28 13:39 -9.57069 -35.32843 38004 ft 482 kts 209°
2026-04-28 13:40 -9.62901 -35.36225 38004 ft 482 kts 209°
2026-04-28 13:40 -9.68693 -35.39584 38005 ft 481 kts 209°
2026-04-28 13:41 -9.74519 -35.42966 38001 ft 481 kts 209°
2026-04-28 13:41 -9.80032 -35.46166 37998 ft 481 kts 209°
2026-04-28 13:42 -9.85826 -35.49530 37995 ft 481 kts 209°
2026-04-28 13:42 -9.91659 -35.52919 37994 ft 480 kts 209°
2026-04-28 13:43 -9.97436 -35.56277 37994 ft 480 kts 209°
2026-04-28 13:43 -10.03224 -35.59643 37994 ft 480 kts 209°
2026-04-28 13:44 -10.09052 -35.63033 37994 ft 480 kts 209°
2026-04-28 13:44 -10.14852 -35.66408 37994 ft 480 kts 209°
2026-04-28 13:45 -10.20637 -35.69776 37997 ft 479 kts 209°
2026-04-28 13:45 -10.26406 -35.73137 37997 ft 478 kts 209°
2026-04-28 13:46 -10.32215 -35.76522 37998 ft 478 kts 209°
2026-04-28 13:46 -10.37476 -35.79590 37998 ft 477 kts 209°
2026-04-28 13:47 -10.43222 -35.82939 38000 ft 477 kts 209°
2026-04-28 13:47 -10.49003 -35.86311 38000 ft 477 kts 209°
2026-04-28 13:48 -10.54753 -35.89668 38002 ft 477 kts 209°
2026-04-28 13:48 -10.60507 -35.93028 38003 ft 477 kts 209°
2026-04-28 13:49 -10.66258 -35.96388 38005 ft 477 kts 209°
2026-04-28 13:49 -10.72030 -35.99762 38006 ft 476 kts 209°
2026-04-28 13:50 -10.77749 -36.03105 38008 ft 475 kts 209°
2026-04-28 13:50 -10.83463 -36.06448 38010 ft 474 kts 209°
2026-04-28 13:51 -10.89204 -36.09809 38009 ft 474 kts 209°
2026-04-28 13:51 -10.94552 -36.12941 38010 ft 474 kts 208°
2026-04-28 13:52 -11.00293 -36.16302 38006 ft 474 kts 208°
2026-04-28 13:52 -11.06017 -36.19656 38000 ft 473 kts 208°
2026-04-28 13:53 -11.11708 -36.22993 37998 ft 473 kts 208°
2026-04-28 13:53 -11.17549 -36.26137 38003 ft 472 kts 206°
2026-04-28 13:54 -11.23380 -36.29185 38005 ft 472 kts 206°
2026-04-28 13:54 -11.29237 -36.32250 38009 ft 472 kts 206°
2026-04-28 13:55 -11.35097 -36.35319 38010 ft 472 kts 206°
2026-04-28 13:55 -11.40933 -36.38380 38009 ft 472 kts 206°
2026-04-28 13:56 -11.46752 -36.41434 38011 ft 471 kts 206°
2026-04-28 13:56 -11.52131 -36.44259 38015 ft 471 kts 206°
2026-04-28 13:57 -11.57974 -36.47327 38022 ft 471 kts 206°
2026-04-28 13:57 -11.63777 -36.50377 38023 ft 471 kts 206°
2026-04-28 13:58 -11.69609 -36.53444 38024 ft 471 kts 206°
2026-04-28 13:58 -11.75442 -36.56511 38028 ft 471 kts 206°
2026-04-28 13:59 -11.81277 -36.59582 38031 ft 471 kts 206°
2026-04-28 13:59 -11.87124 -36.62661 38029 ft 470 kts 206°
2026-04-28 14:00 -11.92908 -36.65708 38030 ft 470 kts 206°
2026-04-28 14:00 -11.98742 -36.68783 38030 ft 469 kts 206°
2026-04-28 14:01 -12.04539 -36.71840 38032 ft 469 kts 206°
2026-04-28 14:01 -12.09880 -36.74657 38030 ft 470 kts 206°
2026-04-28 14:02 -12.15710 -36.77734 38028 ft 470 kts 206°
2026-04-28 14:02 -12.21537 -36.80811 38028 ft 470 kts 206°
2026-04-28 14:03 -12.27329 -36.83872 38031 ft 469 kts 206°
2026-04-28 14:03 -12.33156 -36.86952 38031 ft 469 kts 206°
2026-04-28 14:04 -12.38928 -36.90004 38034 ft 470 kts 206°
2026-04-28 14:04 -12.44754 -36.93087 38032 ft 470 kts 206°
2026-04-28 14:05 -12.50569 -36.96167 38033 ft 470 kts 206°
2026-04-28 14:05 -12.56377 -36.99243 38033 ft 471 kts 206°
2026-04-28 14:06 -12.62236 -37.02348 38034 ft 471 kts 206°
2026-04-28 14:06 -12.67595 -37.05188 38033 ft 471 kts 206°
2026-04-28 14:07 -12.73429 -37.08283 38034 ft 471 kts 206°
2026-04-28 14:07 -12.79235 -37.11365 38034 ft 471 kts 206°
2026-04-28 14:08 -12.85039 -37.14447 38034 ft 472 kts 206°
2026-04-28 14:08 -12.90903 -37.17563 38034 ft 473 kts 206°
2026-04-28 14:09 -12.96752 -37.20672 38034 ft 474 kts 207°
2026-04-28 14:09 -13.02600 -37.23782 38035 ft 473 kts 207°
2026-04-28 14:10 -13.08431 -37.26887 38034 ft 473 kts 207°
2026-04-28 14:10 -13.14300 -37.30011 38035 ft 472 kts 207°
2026-04-28 14:11 -13.20112 -37.33108 38035 ft 471 kts 207°
2026-04-28 14:11 -13.25466 -37.35962 38035 ft 471 kts 207°
2026-04-28 14:12 -13.31292 -37.39069 38035 ft 472 kts 207°
2026-04-28 14:12 -13.37115 -37.42173 38034 ft 473 kts 207°
2026-04-28 14:13 -13.42996 -37.45312 38035 ft 474 kts 207°
2026-04-28 14:13 -13.48842 -37.48439 38035 ft 474 kts 207°
2026-04-28 14:14 -13.54711 -37.51578 38035 ft 472 kts 207°
2026-04-28 14:14 -13.60541 -37.54695 38035 ft 471 kts 207°
2026-04-28 14:15 -13.66355 -37.57805 38035 ft 471 kts 207°
2026-04-28 14:15 -13.72155 -37.60909 38035 ft 472 kts 207°
2026-04-28 14:16 -13.77970 -37.64024 38035 ft 472 kts 207°
2026-04-28 14:16 -13.83375 -37.66922 38035 ft 472 kts 207°
2026-04-28 14:17 -13.89184 -37.70036 38035 ft 473 kts 207°
2026-04-28 14:17 -13.95037 -37.73177 38035 ft 472 kts 207°
2026-04-28 14:18 -14.00882 -37.76317 38038 ft 472 kts 207°
2026-04-28 14:18 -14.06708 -37.79447 38037 ft 471 kts 207°
2026-04-28 14:19 -14.12485 -37.82553 38038 ft 470 kts 207°
2026-04-28 14:19 -14.18328 -37.85693 38036 ft 472 kts 207°
2026-04-28 14:20 -14.24163 -37.88832 38037 ft 473 kts 207°
2026-04-28 14:20 -14.29970 -37.91962 38035 ft 473 kts 207°
2026-04-28 14:21 -14.35819 -37.95114 38039 ft 473 kts 207°
2026-04-28 14:21 -14.41170 -37.97996 38036 ft 473 kts 207°
2026-04-28 14:22 -14.47010 -38.01142 38039 ft 472 kts 208°
2026-04-28 14:22 -14.52819 -38.04281 38036 ft 468 kts 207°
2026-04-28 14:23 -14.58584 -38.07396 38036 ft 467 kts 207°
2026-04-28 14:23 -14.64314 -38.10488 38039 ft 468 kts 208°
2026-04-28 14:24 -14.70121 -38.13628 38039 ft 469 kts 208°
2026-04-28 14:24 -14.75893 -38.16753 38040 ft 468 kts 208°
2026-04-28 14:25 -14.81646 -38.19868 38038 ft 468 kts 208°
2026-04-28 14:25 -14.87417 -38.22994 38039 ft 467 kts 208°
2026-04-28 14:26 -14.93182 -38.26118 38041 ft 467 kts 208°
2026-04-28 14:26 -14.98433 -38.28965 38040 ft 467 kts 208°
2026-04-28 14:27 -15.04188 -38.32088 38041 ft 467 kts 208°
2026-04-28 14:27 -15.09913 -38.35198 38040 ft 467 kts 208°
2026-04-28 14:28 -15.15684 -38.38335 38041 ft 467 kts 208°
2026-04-28 14:28 -15.21460 -38.41475 38039 ft 467 kts 208°
2026-04-28 14:29 -15.27209 -38.44603 38036 ft 467 kts 208°
2026-04-28 14:29 -15.32959 -38.47735 38035 ft 467 kts 208°
2026-04-28 14:30 -15.38700 -38.50862 38038 ft 466 kts 208°
2026-04-28 14:30 -15.44463 -38.54005 38038 ft 467 kts 208°
2026-04-28 14:31 -15.50218 -38.57144 38035 ft 467 kts 208°
2026-04-28 14:31 -15.55442 -38.59995 38037 ft 467 kts 208°
2026-04-28 14:32 -15.61223 -38.63152 38037 ft 468 kts 208°
2026-04-28 14:32 -15.66992 -38.66304 38038 ft 468 kts 209°
2026-04-28 14:33 -15.72739 -38.69447 38034 ft 467 kts 209°
2026-04-28 14:33 -15.78487 -38.72593 38040 ft 467 kts 209°
2026-04-28 14:34 -15.87117 -38.77320 38034 ft 467 kts 209°
2026-04-28 14:35 -15.92853 -38.80463 38037 ft 468 kts 209°
2026-04-28 14:35 -15.98642 -38.83638 38039 ft 468 kts 209°
2026-04-28 14:36 -16.04373 -38.86783 38038 ft 468 kts 209°
2026-04-28 14:36 -16.09643 -38.89677 38047 ft 468 kts 210°
2026-04-28 14:37 -16.15426 -38.92856 38050 ft 467 kts 209°
2026-04-28 14:37 -16.21159 -38.96008 38052 ft 466 kts 210°
2026-04-28 14:38 -16.26921 -38.99131 38051 ft 466 kts 208°
2026-04-28 14:38 -16.32723 -39.02190 38053 ft 467 kts 208°
2026-04-28 14:39 -16.38516 -39.05253 38059 ft 467 kts 208°
2026-04-28 14:39 -16.44321 -39.08332 38060 ft 467 kts 209°
2026-04-28 14:40 -16.50078 -39.11534 38062 ft 467 kts 210°
2026-04-28 14:40 -16.55771 -39.14751 38063 ft 468 kts 210°
2026-04-28 14:41 -16.61490 -39.17972 38061 ft 467 kts 210°
2026-04-28 14:41 -16.66764 -39.20940 38057 ft 466 kts 210°
2026-04-28 14:42 -16.72468 -39.24150 38054 ft 466 kts 210°
2026-04-28 14:42 -16.78180 -39.27365 38054 ft 467 kts 210°
2026-04-28 14:43 -16.83929 -39.30604 38057 ft 467 kts 210°
2026-04-28 14:43 -16.89632 -39.33818 38057 ft 468 kts 210°
2026-04-28 14:44 -16.95379 -39.37060 38060 ft 467 kts 210°
2026-04-28 14:44 -17.01092 -39.40286 38061 ft 467 kts 210°
2026-04-28 14:45 -17.06825 -39.43524 38059 ft 467 kts 210°
2026-04-28 14:45 -17.12534 -39.46751 38058 ft 466 kts 210°
2026-04-28 14:46 -17.18265 -39.49994 38057 ft 467 kts 210°
2026-04-28 14:46 -17.23477 -39.52945 38058 ft 467 kts 210°
2026-04-28 14:47 -17.29228 -39.56202 38054 ft 467 kts 210°
2026-04-28 14:47 -17.34953 -39.59448 38054 ft 467 kts 210°
2026-04-28 14:48 -17.40638 -39.62673 38053 ft 467 kts 210°
2026-04-28 14:48 -17.46375 -39.65931 38049 ft 466 kts 210°
2026-04-28 14:49 -17.52116 -39.69190 38051 ft 467 kts 210°
2026-04-28 14:49 -17.57838 -39.72443 38050 ft 467 kts 210°
2026-04-28 14:50 -17.63531 -39.75684 38050 ft 467 kts 210°
2026-04-28 14:50 -17.69262 -39.78947 38050 ft 467 kts 210°
2026-04-28 14:51 -17.74962 -39.82193 38046 ft 466 kts 210°
2026-04-28 14:51 -17.80159 -39.85156 38045 ft 466 kts 210°
2026-04-28 14:52 -17.85832 -39.88391 38046 ft 465 kts 210°
2026-04-28 14:52 -17.91520 -39.91639 38046 ft 465 kts 210°
2026-04-28 14:53 -17.97206 -39.94888 38045 ft 465 kts 210°
2026-04-28 14:53 -18.02912 -39.98146 38042 ft 465 kts 210°
2026-04-28 14:54 -18.08621 -40.01385 38044 ft 465 kts 210°
2026-04-28 14:54 -18.14332 -40.04625 38045 ft 464 kts 210°
2026-04-28 14:55 -18.20018 -40.07853 38047 ft 464 kts 210°
2026-04-28 14:55 -18.25697 -40.11081 38047 ft 465 kts 210°
2026-04-28 14:56 -18.31377 -40.14312 38046 ft 465 kts 210°
2026-04-28 14:56 -18.36566 -40.17265 38045 ft 464 kts 210°
2026-04-28 14:57 -18.42250 -40.20504 38049 ft 464 kts 211°
2026-04-28 14:57 -18.47938 -40.23748 38049 ft 464 kts 211°
2026-04-28 14:58 -18.53632 -40.26998 38052 ft 464 kts 210°
2026-04-28 14:58 -18.59298 -40.30233 38051 ft 463 kts 211°
2026-04-28 14:59 -18.64941 -40.33460 38057 ft 464 kts 211°
2026-04-28 14:59 -18.70641 -40.36719 38059 ft 464 kts 211°
2026-04-28 15:00 -18.76336 -40.39978 38062 ft 464 kts 210°
2026-04-28 15:00 -18.81978 -40.43210 38069 ft 464 kts 210°
2026-04-28 15:01 -18.87647 -40.46458 38074 ft 463 kts 211°
2026-04-28 15:01 -18.92858 -40.49447 38073 ft 462 kts 211°
2026-04-28 15:02 -18.98518 -40.52697 38083 ft 462 kts 211°
2026-04-28 15:02 -19.04164 -40.55941 38080 ft 462 kts 211°
2026-04-28 15:03 -19.09819 -40.59194 38087 ft 461 kts 211°
2026-04-28 15:03 -19.15492 -40.62458 38086 ft 461 kts 211°
2026-04-28 15:04 -19.21123 -40.65700 38086 ft 461 kts 211°
2026-04-28 15:04 -19.26778 -40.68960 38086 ft 460 kts 211°
2026-04-28 15:05 -19.32429 -40.72220 38080 ft 461 kts 211°
2026-04-28 15:05 -19.38061 -40.75471 38080 ft 461 kts 211°
2026-04-28 15:06 -19.43676 -40.78714 38078 ft 461 kts 211°
2026-04-28 15:06 -19.48864 -40.81713 38083 ft 461 kts 211°
2026-04-28 15:07 -19.54517 -40.84985 38083 ft 461 kts 211°
2026-04-28 15:07 -19.60153 -40.88251 38099 ft 462 kts 211°
2026-04-28 15:08 -19.65797 -40.91533 38117 ft 462 kts 211°
2026-04-28 15:08 -19.71445 -40.94819 38143 ft 463 kts 211°
2026-04-28 15:09 -19.76880 -40.97982 38173 ft 463 kts 211°
2026-04-28 15:09 -19.82525 -41.01272 38180 ft 463 kts 212°
2026-04-28 15:10 -19.88200 -41.04584 38169 ft 463 kts 212°
2026-04-28 15:10 -19.93853 -41.07904 38160 ft 463 kts 212°
2026-04-28 15:11 -19.99468 -41.11206 38148 ft 463 kts 212°
2026-04-28 15:11 -20.04675 -41.14269 38152 ft 462 kts 212°
2026-04-28 15:12 -20.10315 -41.17586 38149 ft 463 kts 212°
2026-04-28 15:12 -20.15975 -41.20919 38165 ft 463 kts 212°
2026-04-28 15:13 -20.21626 -41.24252 38167 ft 463 kts 212°
2026-04-28 15:13 -20.27267 -41.27580 38169 ft 463 kts 212°
2026-04-28 15:14 -20.32907 -41.30910 38161 ft 463 kts 212°
2026-04-28 15:14 -20.38550 -41.34244 38157 ft 462 kts 212°
2026-04-28 15:15 -20.44162 -41.37564 38144 ft 463 kts 212°
2026-04-28 15:15 -20.49794 -41.40899 38130 ft 464 kts 212°
2026-04-28 15:16 -20.55483 -41.44244 38115 ft 464 kts 212°
2026-04-28 15:16 -20.60685 -41.47299 38100 ft 464 kts 212°
2026-04-28 15:17 -20.66221 -41.50554 38094 ft 464 kts 212°
2026-04-28 15:17 -20.71896 -41.53894 38095 ft 464 kts 212°
2026-04-28 15:18 -20.77545 -41.57222 38083 ft 464 kts 212°
2026-04-28 15:18 -20.83193 -41.60553 38095 ft 465 kts 212°
2026-04-28 15:19 -20.88866 -41.63902 38106 ft 465 kts 212°
2026-04-28 15:19 -20.94582 -41.67279 38108 ft 465 kts 212°
2026-04-28 15:20 -21.00266 -41.70641 38113 ft 465 kts 212°
2026-04-28 15:20 -21.05921 -41.73987 38104 ft 466 kts 212°
2026-04-28 15:21 -21.11622 -41.77361 38087 ft 466 kts 212°
2026-04-28 15:21 -21.16808 -41.80435 38081 ft 466 kts 212°
2026-04-28 15:22 -21.22472 -41.83796 38073 ft 466 kts 212°
2026-04-28 15:22 -21.28129 -41.87157 38062 ft 467 kts 212°
2026-04-28 15:23 -21.33845 -41.90556 38069 ft 467 kts 212°
2026-04-28 15:23 -21.39529 -41.93938 38063 ft 466 kts 212°
2026-04-28 15:24 -21.45190 -41.97308 38070 ft 466 kts 212°
2026-04-28 15:24 -21.50872 -42.00692 38071 ft 465 kts 213°
2026-04-28 15:24 -21.53689 -42.02373 37726 ft 466 kts 213°
2026-04-28 15:25 -21.56567 -42.04092 36787 ft 473 kts 213°
2026-04-28 15:25 -21.59445 -42.05812 35777 ft 479 kts 213°
2026-04-28 15:25 -21.62346 -42.07546 34906 ft 482 kts 213°
2026-04-28 15:25 -21.65291 -42.09304 34096 ft 484 kts 213°
2026-04-28 15:26 -21.68257 -42.11076 33237 ft 486 kts 213°
2026-04-28 15:26 -21.71195 -42.12832 32395 ft 489 kts 213°
2026-04-28 15:26 -21.73645 -42.14298 31695 ft 491 kts 213°
2026-04-28 15:26 -21.76637 -42.16088 30820 ft 495 kts 213°
2026-04-28 15:27 -21.79677 -42.17910 29932 ft 498 kts 213°
2026-04-28 15:27 -21.82666 -42.19700 29266 ft 496 kts 213°
2026-04-28 15:27 -21.85672 -42.21502 28818 ft 490 kts 213°
2026-04-28 15:27 -21.88627 -42.23282 28362 ft 485 kts 213°
2026-04-28 15:28 -21.91574 -42.25062 27865 ft 481 kts 213°
2026-04-28 15:28 -21.94487 -42.26823 27425 ft 476 kts 213°
2026-04-28 15:28 -21.97342 -42.28548 27010 ft 470 kts 213°
2026-04-28 15:28 -22.00184 -42.30266 26606 ft 465 kts 213°
2026-04-28 15:29 -22.02985 -42.31961 26206 ft 460 kts 213°
2026-04-28 15:29 -22.05747 -42.33634 25814 ft 455 kts 213°
2026-04-28 15:29 -22.08363 -42.35484 25377 ft 444 kts 226°
2026-04-28 15:29 -22.10326 -42.37972 24984 ft 430 kts 242°
2026-04-28 15:30 -22.11545 -42.40850 24568 ft 418 kts 256°
2026-04-28 15:30 -22.12270 -42.43882 24195 ft 412 kts 259°
2026-04-28 15:30 -22.12962 -42.46858 23809 ft 408 kts 259°
2026-04-28 15:30 -22.13652 -42.49788 23436 ft 405 kts 258°
2026-04-28 15:31 -22.14346 -42.52710 23054 ft 401 kts 258°
2026-04-28 15:31 -22.15035 -42.55597 22679 ft 398 kts 258°
2026-04-28 15:31 -22.15604 -42.57974 22372 ft 395 kts 258°
2026-04-28 15:31 -22.16286 -42.60814 22011 ft 392 kts 258°
2026-04-28 15:32 -22.16975 -42.63681 21639 ft 390 kts 258°
2026-04-28 15:32 -22.17425 -42.65553 21394 ft 388 kts 258°
2026-04-28 15:32 -22.18322 -42.69286 20902 ft 385 kts 258°
2026-04-28 15:32 -22.18986 -42.72062 20529 ft 383 kts 258°
2026-04-28 15:33 -22.19651 -42.74834 20164 ft 381 kts 258°
2026-04-28 15:33 -22.20309 -42.77580 19804 ft 379 kts 258°
2026-04-28 15:33 -22.20968 -42.80334 19433 ft 377 kts 258°
2026-04-28 15:33 -22.21616 -42.83038 19317 ft 366 kts 258°
2026-04-28 15:34 -22.22239 -42.85640 19316 ft 353 kts 258°
2026-04-28 15:34 -22.22837 -42.88133 19314 ft 339 kts 259°
2026-04-28 15:34 -22.23421 -42.90579 19316 ft 326 kts 259°
2026-04-28 15:34 -22.23972 -42.92888 19311 ft 314 kts 259°
2026-04-28 15:35 -22.24501 -42.95113 19300 ft 302 kts 259°
2026-04-28 15:35 -22.25507 -42.99346 19287 ft 287 kts 259°
2026-04-28 15:35 -22.26007 -43.01457 19266 ft 288 kts 259°
2026-04-28 15:36 -22.26496 -43.03521 19149 ft 289 kts 259°
2026-04-28 15:36 -22.27002 -43.05663 18728 ft 294 kts 259°
2026-04-28 15:36 -22.27426 -43.07460 18384 ft 297 kts 259°
2026-04-28 15:36 -22.27938 -43.09625 17964 ft 300 kts 258°
2026-04-28 15:37 -22.28451 -43.11788 17564 ft 303 kts 258°
2026-04-28 15:37 -22.28976 -43.14003 17155 ft 306 kts 258°
2026-04-28 15:37 -22.29509 -43.16247 16739 ft 309 kts 258°
2026-04-28 15:37 -22.29862 -43.17737 16454 ft 311 kts 258°
2026-04-28 15:38 -22.30574 -43.20760 15879 ft 316 kts 258°
2026-04-28 15:38 -22.31124 -43.23085 15449 ft 320 kts 258°
2026-04-28 15:38 -22.31668 -43.25391 14997 ft 323 kts 258°
2026-04-28 15:38 -22.32225 -43.27758 14545 ft 327 kts 258°
2026-04-28 15:39 -22.32787 -43.30144 14112 ft 329 kts 258°
2026-04-28 15:39 -22.33356 -43.32552 13668 ft 332 kts 258°
2026-04-28 15:39 -22.33921 -43.34951 13242 ft 333 kts 258°
2026-04-28 15:39 -22.34487 -43.37357 13094 ft 324 kts 258°
2026-04-28 15:40 -22.35036 -43.39675 13086 ft 312 kts 258°
2026-04-28 15:40 -22.35559 -43.41896 13074 ft 300 kts 258°
2026-04-28 15:40 -22.36056 -43.44010 13066 ft 288 kts 258°
2026-04-28 15:40 -22.36541 -43.46072 13057 ft 276 kts 258°
2026-04-28 15:41 -22.37178 -43.47982 13037 ft 273 kts 236°
2026-04-28 15:41 -22.38622 -43.49313 13019 ft 278 kts 206°
2026-04-28 15:41 -22.40222 -43.49999 12862 ft 278 kts 201°
2026-04-28 15:41 -22.42048 -43.50672 12591 ft 279 kts 200°
2026-04-28 15:42 -22.43880 -43.51366 12338 ft 279 kts 201°
2026-04-28 15:42 -22.45699 -43.52088 12109 ft 278 kts 202°
2026-04-28 15:42 -22.47517 -43.52834 11886 ft 276 kts 202°
2026-04-28 15:42 -22.49317 -43.53582 11649 ft 275 kts 202°
2026-04-28 15:43 -22.51084 -43.54322 11421 ft 273 kts 202°
2026-04-28 15:43 -22.52864 -43.55066 11073 ft 272 kts 202°
2026-04-28 15:43 -22.54652 -43.55815 10429 ft 280 kts 201°
2026-04-28 15:43 -22.56570 -43.56218 9651 ft 290 kts 172°
2026-04-28 15:44 -22.58444 -43.55544 9147 ft 286 kts 150°
2026-04-28 15:44 -22.60152 -43.54482 8659 ft 283 kts 148°
2026-04-28 15:44 -22.61877 -43.53410 7969 ft 288 kts 149°
2026-04-28 15:44 -22.63599 -43.52238 7133 ft 297 kts 141°
2026-04-28 15:45 -22.65119 -43.50720 6264 ft 304 kts 128°
2026-04-28 15:45 -22.66423 -43.48907 5341 ft 310 kts 124°
2026-04-28 15:45 -22.67659 -43.47002 4575 ft 310 kts 123°
2026-04-28 15:45 -22.68865 -43.45124 4016 ft 302 kts 123°
2026-04-28 15:46 -22.70055 -43.43296 3617 ft 290 kts 123°
2026-04-28 15:46 -22.71202 -43.41555 3253 ft 279 kts 123°
2026-04-28 15:46 -22.72107 -43.40185 2965 ft 269 kts 124°
2026-04-28 15:46 -22.73162 -43.38593 2622 ft 248 kts 124°
2026-04-28 15:47 -22.74126 -43.37135 2313 ft 229 kts 123°
2026-04-28 15:47 -22.75023 -43.35777 2033 ft 214 kts 123°
2026-04-28 15:47 -22.75855 -43.34517 1788 ft 200 kts 123°
2026-04-28 15:47 -22.76642 -43.33327 1571 ft 187 kts 124°
2026-04-28 15:48 -22.77378 -43.32213 1325 ft 178 kts 124°
2026-04-28 15:48 -22.78088 -43.31139 1093 ft 170 kts 124°
2026-04-28 15:48 -22.78764 -43.30119 860 ft 164 kts 125°
2026-04-28 15:48 -22.79415 -43.29142 667 ft 157 kts 123°
2026-04-28 15:49 -22.80024 -43.28194 464 ft 150 kts 124°
2026-04-28 15:49 -22.80617 -43.27296 283 ft 142 kts 125°
2026-04-28 15:49 -22.81188 -43.26438 121 ft 140 kts 126°
2026-04-28 15:49 -22.81755 -43.25604 40 ft 130 kts 126°
2026-04-28 15:50 -22.82204 -43.24922 39 ft 89 kts 124°
2026-04-28 15:50 -22.82457 -43.24535 39 ft 36 kts 126°
2026-04-28 15:50 -22.82587 -43.24336 39 ft 27 kts 124°
2026-04-28 15:50 -22.82634 -43.24238 39 ft 4 kts 57°
2026-04-28 15:51 -22.82607 -43.24211 39 ft 6 kts 36°
2026-04-28 15:51 -22.82568 -43.24182 39 ft 7 kts 33°
2026-04-28 15:51 -22.82529 -43.24170 39 ft 7 kts 338°
2026-04-28 15:51 -22.82488 -43.24216 39 ft 9 kts 306°
2026-04-28 15:52 -22.82447 -43.24277 39 ft 10 kts 306°
2026-04-28 15:52 -22.82397 -43.24349 39 ft 14 kts 306°
2026-04-28 15:52 -22.82328 -43.24454 39 ft 19 kts 305°
2026-04-28 15:52 -22.82250 -43.24572 39 ft 19 kts 305°
2026-04-28 15:53 -22.82172 -43.24691 39 ft 16 kts 305°
2026-04-28 15:53 -22.82115 -43.24731 39 ft 6 kts 22°
2026-04-28 15:53 -22.82073 -43.24703 39 ft 8 kts 33°
2026-04-28 15:53 -22.82009 -43.24655 39 ft 13 kts 35°
2026-04-28 15:54 -22.81917 -43.24611 39 ft 15 kts 358°
2026-04-28 15:54 -22.81873 -43.24604 39 ft 4 kts 27°
2026-04-28 15:54 -22.81841 -43.24578 39 ft 6 kts 39°
2026-04-28 15:54 -22.81789 -43.24536 39 ft 10 kts 36°
2026-04-28 15:55 -22.81725 -43.24486 39 ft 11 kts 37°
2026-04-28 15:55 -22.81677 -43.24433 39 ft 5 kts 33°
2026-04-28 15:55 -22.81634 -43.24433 39 ft 7 kts 343°
2026-04-28 15:55 -22.81600 -43.24448 39 ft 0 kts 335°